Weather History for Apalachicola, FL

Change the Weather History Date:

Monday, December 3, 2012

  Actual Average Record
Temperature  
Mean Temperature 63 °F 58 °F  
Max Temperature 75 °F 68 °F 80 °F (1998)
Min Temperature 51 °F 47 °F 30 °F (1944)
Degree Days  
Heating Degree Days 3    
Month to date heating degree days  
Since 1 July heating degree days  
Cooling Degree Days 0    
Month to date cooling degree days  
Year to date cooling degree days  
Growing Degree Days 12 (Base 50)    
Moisture  
Dew Point 57 °F    
Average Humidity 85    
Maximum Humidity 94    
Minimum Humidity 60    
Precipitation  
Precipitation 0.00 in 0.12 in 2.07 in (1971)
Month to date precipitation 0.00 0.36  
Year to date precipitation 55.63 54.75  
Sea Level Pressure  
Sea Level Pressure 30.25 in    
Wind  
Wind Speed 3 mph (East)    
Max Wind Speed 9 mph    
Max Gust Speed -    
Visibility 8 miles    
Events      
T = Trace of Precipitation, MM = Missing Value Source: NWS Daily Summary

Daily Weather History Graph

Daily Weather History Graph

Search for Another Location

Airport:

Trip Planner

Search our weather history database for the weather conditions in past years. The results will help you decide how hot, cold, wet, or windy it might be!

Date:

Astronomy

Dec. 03, 2012 Rise Set
Actual Time 7:19 AM EST 5:40 PM EST
Civil Twilight 6:53 AM EST 6:06 PM EST
Nautical Twilight 6:24 AM EST 6:36 PM EST
Astronomical Twilight 5:55 AM EST 7:04 PM EST
Moon 10:14 PM EST (12/3) 10:52 AM EST (12/3)
Length of Visible Light 11h 12m
Length of Day
10h 20m
Waning Gibbous, 78% of the Moon is Illuminated
Dec 3
Waning Gibbous
Dec 6
Last Quarter
Dec 13
New
Dec 20
First Quarter
Dec 28
Full

Hourly Weather History & Observations

Time (EST) Temp. Dew Point Humidity Pressure Visibility Wind Dir Wind Speed Gust Speed Precip Events Conditions
12:50 AM 53.6 °F 50.0 °F 88% 30.24 in 2.5 mi Calm Calm - N/A   Clear
12:53 AM 53.1 °F 50.0 °F 89% 30.24 in 4.0 mi Calm Calm - N/A   Clear
1:45 AM 51.8 °F 50.0 °F 94% 30.24 in 1.8 mi Calm Calm - N/A   Clear
1:53 AM 51.1 °F 48.9 °F 92% 30.24 in 1.2 mi Calm Calm - N/A   Clear
2:00 AM 51.8 °F 48.2 °F 88% 30.23 in 3.0 mi NE 3.5 mph - N/A   Clear
2:53 AM 57.9 °F 55.0 °F 90% 30.24 in 10.0 mi East 5.8 mph - N/A   Clear
3:53 AM 57.0 °F 54.0 °F 89% 30.24 in 10.0 mi NE 5.8 mph - N/A   Partly Cloudy
4:53 AM 57.9 °F 55.0 °F 90% 30.24 in 10.0 mi ENE 5.8 mph - N/A   Mostly Cloudy
5:53 AM 59.0 °F 57.0 °F 93% 30.24 in 10.0 mi ENE 4.6 mph - N/A   Mostly Cloudy
6:53 AM 60.1 °F 57.9 °F 93% 30.25 in 10.0 mi ENE 4.6 mph - N/A   Overcast
7:53 AM 62.1 °F 59.0 °F 90% 30.27 in 10.0 mi ENE 4.6 mph - N/A   Overcast
8:53 AM 63.0 °F 60.1 °F 90% 30.29 in 10.0 mi ENE 5.8 mph - N/A   Overcast
9:53 AM 66.2 °F 62.6 °F 88% 30.30 in 10.0 mi East 6.9 mph - N/A   Overcast
10:53 AM 70.0 °F 63.0 °F 78% 30.30 in 10.0 mi East 6.9 mph - N/A   Overcast
11:53 AM 72.0 °F 62.1 °F 71% 30.28 in 10.0 mi ESE 8.1 mph - N/A   Clear
12:53 PM 73.0 °F 62.1 °F 68% 30.26 in 10.0 mi ESE 9.2 mph - N/A   Clear
1:53 PM 73.4 °F 60.8 °F 65% 30.23 in 10.0 mi ESE 8.1 mph - N/A   Clear
2:53 PM 72.0 °F 62.1 °F 71% 30.22 in 10.0 mi SE 9.2 mph - N/A   Clear
3:53 PM 72.0 °F 61.0 °F 68% 30.22 in 10.0 mi East 9.2 mph - N/A   Clear
4:53 PM 70.0 °F 61.0 °F 73% 30.22 in 10.0 mi ESE 5.8 mph - N/A   Clear
5:53 PM 66.0 °F 61.0 °F 84% 30.23 in 10.0 mi East 4.6 mph - N/A   Mostly Cloudy
6:53 PM 64.0 °F 60.1 °F 87% 30.24 in 10.0 mi ENE 3.5 mph - N/A   Mostly Cloudy
7:53 PM 61.0 °F 57.9 °F 90% 30.25 in 10.0 mi Calm Calm - N/A   Clear
8:53 PM 60.1 °F 57.0 °F 90% 30.25 in 10.0 mi Calm Calm - N/A   Clear
9:08 PM 59.0 °F 55.4 °F 88% 30.24 in 2.0 mi Calm Calm - N/A   Partly Cloudy
9:10 PM 59.0 °F 57.2 °F 94% 30.24 in 0.8 mi Calm Calm - N/A   Mist
9:21 PM 57.2 °F 55.4 °F 94% 30.24 in 1.2 mi Calm Calm - N/A   Scattered Clouds
9:23 PM 57.2 °F 55.4 °F 94% 30.24 in 4.0 mi Calm Calm - N/A   Partly Cloudy
9:53 PM 57.0 °F 54.0 °F 89% 30.25 in 10.0 mi Calm Calm - N/A   Clear
10:53 PM 61.0 °F 57.9 °F 90% 30.25 in 10.0 mi Calm Calm - N/A   Clear
11:53 PM 57.0 °F 54.0 °F 89% 30.25 in 7.0 mi Calm Calm - N/A   Clear